Regional Weather Roundup
Issued by NWS

Home | Current Version | Previous Version | Text Only | Print | Product List | Glossary On
Versions: 1 2 3 4 5 6 7 8 9 10 11 12 13 14 15 16 17 18 19 20 21 22 23 24 25 26 27
000
ASUS45 KPSR 231510
RWRAZ

ARIZONA HOURLY REGIONAL WEATHER ROUNDUP
NATIONAL WEATHER SERVICE PHOENIX AZ
800 AM MST MON OCT 23 2017

NOTE: FAIR INDICATES FEW OR NO CLOUDS BELOW 12,000 FEET WITH NO
SIGNIFICANT WEATHER AND/OR OBSTRUCTIONS TO VISIBILITY.

AZZ001>003-036-231600-
NORTHWEST ARIZONA

CITY           SKY/WX    TMP DP  RH WIND       PRES   REMARKS
BULLHEAD CITY  SUNNY     75  27  16 N24       30.17R
KINGMAN        SUNNY     57  26  30 E8        30.34R
$$

AZZ004>008-015-016-018-231600-
NORTH CENTRAL ARIZONA

CITY           SKY/WX    TMP DP  RH WIND       PRES   REMARKS
GRAND CANYON   MOSUNNY   40  17  39 NE5       30.51R
WILLIAMS       MOSUNNY   45  12  26 S6        30.49R
PRESCOTT       MOSUNNY   48  23  37 SW6       30.41R
FLAGSTAFF      SUNNY     40  18  41 CALM      30.52R
PAYSON         SUNNY     66  19  16 NE6       30.40R
PAGE           SUNNY     54  22  28 CALM      30.44R
$$

AZZ009>014-017-231600-
NORTHEAST ARIZONA

CITY           SKY/WX    TMP DP  RH WIND       PRES   REMARKS
WINSLOW        MOSUNNY   42  13  30 E6        30.46R
SAINT JOHNS    MOSUNNY   46  19  34 VRB3      30.47R
WINDOW ROCK    SUNNY     39  17  41 CALM      30.51R
SHOW LOW       MOSUNNY   46  16  29 N3        30.51R
$$

AZZ540-542>544-546-548-231600-
GREATER PHOENIX AREA

CITY           SKY/WX    TMP DP  RH WIND       PRES   REMARKS
PHOENIX        MOSUNNY   70  31  23 E3        30.13R
BUCKEYE        SUNNY     70  19  14 N3        30.14R
GLENDALE       MOSUNNY   64  32  29 CALM      30.15R
LUKE AFB       SUNNY     66  32  28 N3        30.13R
DEER VALLEY    SUNNY     70  25  18 CALM      30.15R
SCOTTSDALE     SUNNY     70  30  22 CALM      30.16R
MESA-FALCON    SUNNY     72  27  18 N17       30.15R
MESA-GATEWAY   SUNNY     61  27  27 E5        30.15R
CHANDLER       SUNNY     61  41  48 CALM      30.14R
$$

AZZ539-553-231600-
SOUTHWEST MARICOPA COUNTY AND PINAL COUNTY

CITY           SKY/WX    TMP DP  RH WIND       PRES   REMARKS
CASA GRANDE    NOT AVBL
GILA BEND      SUNNY    N/A N/A N/A MISG        N/A
$$

AZZ503-504-507>509-231600-
SOUTHEAST ARIZONA

CITY           SKY/WX    TMP DP  RH WIND       PRES   REMARKS
TUCSON         SUNNY     62  24  23 S8        30.22R
DAVIS-MONTHAN  SUNNY     60  24  25 CALM      30.20R
NOGALES        SUNNY     64  25  22 CALM      30.27R
SIERRA VISTA   SUNNY     68  17  14 CALM      30.33R
DOUGLAS        SUNNY     52  23  32 E3        30.31R
SAFFORD        SUNNY     52  19  27 CALM      30.28R
$$

AZZ532-231600-
SOUTHWEST ARIZONA

CITY           SKY/WX    TMP DP  RH WIND       PRES   REMARKS
YUMA           NOT AVBL
$$

CAZ041-043-047-048-061-525>527-560>570-231600-
SOUTHERN CALIFORNIA

CITY           SKY/WX    TMP DP  RH WIND       PRES   REMARKS
DOWNTOWN L.A.  SUNNY     72  36  26 N3        30.06R
L.A. AIRPORT   CLEAR     76  36  23 CALM      30.07R
SAN DIEGO      SUNNY     67  38  34 CALM      30.06R
BURBANK        CLEAR     66  34  30 NW3       30.09R
ONTARIO        SUNNY     71  35  26 CALM      30.11R
RIVERSIDE      SUNNY     75  33  21 E6        30.12R
PALM SPRINGS   SUNNY     80  32  17 W7        30.16R
EL CENTRO NAS  SUNNY     66  24  20 W8        30.11R
IMPERIAL       SUNNY     65  29  25 W7        30.09R
BLYTHE         SUNNY     68  26  20 CALM      30.15R
NEEDLES        SUNNY     75  30  19 N9        30.19R
$$

NVZ020-UTZ003-231600-
SOUTHERN NEVADA-UTAH

CITY           SKY/WX    TMP DP  RH WIND       PRES   REMARKS
LAS VEGAS      SUNNY     67  27  22 CALM      30.31R
SALT LAKE CITY PTSUNNY   54  41  61 NE3       30.57R
$$

NMZ009-TXZ055-231600-
NEW MEXICO-WEST TEXAS

CITY           SKY/WX    TMP DP  RH WIND       PRES   REMARKS
ALBUQUERQUE    MOSUNNY   59  24  26 N10       30.40R
EL PASO        SUNNY     59  26  28 CALM      30.28R
$$


........................KEY........................
SKY/WX - SKY CONDITION/WEATHER
TMP    - TEMPERATURE IN FAHRENHEIT
DP     - DEW POINT IN FAHRENHEIT
RH     - RELATIVE HUMIDITY IN PERCENT
WIND   - DIRECTION AND SPEED IN MILES PER HOUR (MPH)
VRB    - VARIABLE WIND DIRECTION
PRES   - MEAN SEA LEVEL PRESSURE IN INCHES OF MERCURY
         F - FALLING PRESSURE   R - RISING PRESSURE
         S - STEADY PRESSURE
VSB    - VISIBILITY IN MILES
HX     - HEAT INDEX IN FAHRENHEIT
WCI    - WIND CHILL INDEX IN FAHRENHEIT
TC     - TEMPERATURE IN CELSIUS WHICH IS ALSO KNOWN AS
         TEMPERATURE IN CENTIGRADE
AFB    - AIR FORCE BASE
         LUKE AFB IS LUKE AIR FORCE BASE
         DAVIS-MONTHAN IS DAVIS-MONTHAN AIR FORCE BASE
NAS    - NAVAL AIR STATION
         EL CENTRO NAS IS EL CENTRO NAVAL AIR STATION
N/A    - NOT AVAILABLE





USA.gov is the U.S. government's official web portal to all federal, state and local government web resources and services.